TimeAKDT,TemperatureF,Dew PointF,Humidity,Sea Level PressureIn,VisibilityMPH,Wind Direction,Wind SpeedMPH,Gust SpeedMPH,PrecipitationIn,Events,Conditions,WindDirDegrees,DateUTC
12:16 AM,41.0,37.4,87,30.16,10.0,Calm,Calm,-,N/A,,Overcast,0,2013-05-02 08:16:00
12:36 AM,41.0,37.4,87,30.17,10.0,Calm,Calm,-,N/A,,Overcast,0,2013-05-02 08:36:00
12:56 AM,41.0,37.4,87,30.17,10.0,Calm,Calm,-,N/A,,Overcast,0,2013-05-02 08:56:00
1:16 AM,41.0,37.4,87,30.18,10.0,Calm,Calm,-,N/A,,Overcast,0,2013-05-02 09:16:00
1:36 AM,41.0,37.4,87,30.19,10.0,SW,4.6,-,N/A,,Overcast,220,2013-05-02 09:36:00
1:56 AM,42.8,39.2,87,30.19,8.0,NW,3.5,-,0.06,,Overcast,310,2013-05-02 09:56:00
2:16 AM,41.0,39.2,93,30.19,10.0,SW,3.5,-,N/A,,Overcast,230,2013-05-02 10:16:00
2:36 AM,41.0,37.4,87,30.19,10.0,Calm,Calm,-,N/A,,Overcast,0,2013-05-02 10:36:00
2:56 AM,41.0,37.4,87,30.19,10.0,Calm,Calm,-,N/A,,Overcast,0,2013-05-02 10:56:00
3:16 AM,41.0,37.4,87,30.19,10.0,Calm,Calm,-,N/A,,Overcast,0,2013-05-02 11:16:00
3:36 AM,41.0,39.2,93,30.20,10.0,WSW,3.5,-,N/A,,Overcast,240,2013-05-02 11:36:00
3:56 AM,41.0,37.4,87,30.21,10.0,Calm,Calm,-,N/A,,Overcast,0,2013-05-02 11:56:00
4:16 AM,41.0,37.4,87,30.21,10.0,Calm,Calm,-,0.01,,Overcast,0,2013-05-02 12:16:00
4:36 AM,41.0,37.4,87,30.21,10.0,WSW,4.6,-,0.01,,Overcast,250,2013-05-02 12:36:00
4:56 AM,41.0,37.4,87,30.21,10.0,SW,3.5,-,0.01,,Overcast,230,2013-05-02 12:56:00
5:16 AM,41.0,39.2,93,30.21,10.0,WSW,3.5,-,0.01,,Overcast,250,2013-05-02 13:16:00
5:36 AM,41.0,39.2,93,30.22,10.0,SW,3.5,-,0.01,,Overcast,230,2013-05-02 13:36:00
5:56 AM,41.0,39.2,93,30.22,10.0,West,3.5,-,0.01,,Overcast,270,2013-05-02 13:56:00
6:16 AM,41.0,39.2,93,30.22,10.0,SW,3.5,-,0.01,,Overcast,230,2013-05-02 14:16:00
6:36 AM,42.8,39.2,87,30.23,10.0,West,3.5,-,0.01,,Overcast,260,2013-05-02 14:36:00
6:56 AM,42.8,39.2,87,30.23,10.0,Calm,Calm,-,0.01,,Overcast,0,2013-05-02 14:56:00
7:16 AM,42.8,39.2,87,30.24,10.0,Calm,Calm,-,N/A,,Overcast,0,2013-05-02 15:16:00
7:36 AM,42.8,39.2,87,30.25,10.0,Calm,Calm,-,N/A,,Overcast,0,2013-05-02 15:36:00
7:56 AM,42.8,39.2,87,30.25,10.0,Calm,Calm,-,N/A,,Overcast,0,2013-05-02 15:56:00
8:16 AM,42.8,39.2,87,30.26,10.0,Calm,Calm,-,N/A,,Overcast,0,2013-05-02 16:16:00
8:36 AM,42.8,41.0,93,30.26,10.0,Calm,Calm,-,N/A,,Overcast,0,2013-05-02 16:36:00
8:56 AM,42.8,39.2,87,30.27,3.0,Calm,Calm,-,N/A,,Overcast,0,2013-05-02 16:56:00
9:16 AM,42.8,39.2,87,30.27,3.0,Calm,Calm,-,N/A,,Overcast,0,2013-05-02 17:16:00
9:36 AM,44.6,41.0,87,30.27,3.0,Calm,Calm,-,N/A,,Overcast,0,2013-05-02 17:36:00
9:56 AM,44.6,41.0,87,30.28,3.0,NNW,3.5,-,N/A,,Overcast,330,2013-05-02 17:56:00
10:16 AM,44.6,41.0,87,30.29,3.0,NNW,3.5,-,N/A,,Overcast,330,2013-05-02 18:16:00
10:36 AM,44.6,41.0,87,30.30,3.0,NNW,3.5,-,N/A,,Overcast,340,2013-05-02 18:36:00
10:56 AM,44.6,42.8,93,30.30,4.0,ENE,8.1,-,N/A,,Overcast,60,2013-05-02 18:56:00
11:16 AM,44.6,42.8,93,30.31,4.0,NE,5.8,-,N/A,,Overcast,50,2013-05-02 19:16:00
11:36 AM,46.4,42.8,87,30.31,4.0,NNE,3.5,-,N/A,,Overcast,30,2013-05-02 19:36:00
11:56 AM,46.4,44.6,93,30.32,5.0,Calm,Calm,-,N/A,,Overcast,0,2013-05-02 19:56:00
12:16 PM,46.4,42.8,87,30.33,5.0,Calm,Calm,-,N/A,,Overcast,0,2013-05-02 20:16:00
12:36 PM,46.4,42.8,87,30.34,5.0,NNW,3.5,-,N/A,,Overcast,340,2013-05-02 20:36:00
12:56 PM,46.4,44.6,93,30.35,5.0,ENE,4.6,-,N/A,,Overcast,70,2013-05-02 20:56:00
1:56 PM,46.4,44.6,93,30.37,7.0,North,3.5,-,N/A,,Overcast,360,2013-05-02 21:56:00
2:16 PM,46.4,44.6,93,30.38,7.0,Calm,Calm,-,N/A,,Overcast,0,2013-05-02 22:16:00
2:36 PM,46.4,44.6,93,30.39,7.0,SSE,3.5,-,N/A,,Overcast,160,2013-05-02 22:36:00
2:56 PM,46.4,44.6,93,30.40,7.0,Calm,Calm,-,N/A,,Overcast,0,2013-05-02 22:56:00
3:16 PM,48.2,42.8,82,30.41,7.0,Calm,Calm,-,N/A,,Overcast,0,2013-05-02 23:16:00
3:36 PM,48.2,44.6,87,30.41,7.0,NE,4.6,-,N/A,,Overcast,50,2013-05-02 23:36:00
3:56 PM,46.4,44.6,93,30.41,7.0,North,4.6,-,N/A,,Overcast,10,2013-05-02 23:56:00
4:16 PM,46.4,44.6,93,30.41,7.0,WSW,3.5,-,N/A,,Overcast,250,2013-05-03 00:16:00
4:36 PM,46.4,42.8,87,30.41,7.0,SW,8.1,-,N/A,,Overcast,230,2013-05-03 00:36:00
4:56 PM,46.4,42.8,87,30.42,7.0,South,5.8,-,N/A,,Overcast,190,2013-05-03 00:56:00
5:16 PM,46.4,42.8,87,30.42,7.0,SSW,4.6,-,N/A,,Overcast,210,2013-05-03 01:16:00
5:36 PM,48.2,42.8,82,30.43,7.0,SSW,6.9,-,N/A,,Overcast,210,2013-05-03 01:36:00
5:56 PM,46.4,42.8,87,30.43,10.0,SE,3.5,-,N/A,,Overcast,130,2013-05-03 01:56:00
6:16 PM,46.4,42.8,87,30.42,10.0,NNE,4.6,-,N/A,,Overcast,20,2013-05-03 02:16:00
6:36 PM,46.4,42.8,87,30.43,10.0,Calm,Calm,-,N/A,,Overcast,0,2013-05-03 02:36:00
6:56 PM,46.4,42.8,87,30.44,10.0,SSW,5.8,-,N/A,,Overcast,210,2013-05-03 02:56:00
7:16 PM,46.4,42.8,87,30.44,10.0,SSW,4.6,-,N/A,,Overcast,210,2013-05-03 03:16:00
7:36 PM,46.4,42.8,87,30.46,10.0,SW,6.9,-,N/A,,Overcast,220,2013-05-03 03:36:00
7:56 PM,46.4,42.8,87,30.46,5.0,South,3.5,-,N/A,,Overcast,180,2013-05-03 03:56:00
8:16 PM,46.4,42.8,87,30.46,5.0,West,4.6,-,N/A,,Overcast,270,2013-05-03 04:16:00
8:36 PM,46.4,42.8,87,30.47,5.0,South,3.5,-,N/A,,Overcast,190,2013-05-03 04:36:00
8:56 PM,46.4,42.8,87,30.49,5.0,Calm,Calm,-,N/A,,Overcast,0,2013-05-03 04:56:00
9:16 PM,46.4,41.0,81,30.48,5.0,Calm,Calm,-,0.01,,Overcast,0,2013-05-03 05:16:00
9:36 PM,44.6,42.8,93,30.49,5.0,SSW,3.5,-,0.01,,Overcast,200,2013-05-03 05:36:00
9:56 PM,44.6,42.8,93,30.49,7.0,SW,3.5,-,0.01,,Overcast,230,2013-05-03 05:56:00
10:16 PM,44.6,42.8,93,30.50,10.0,NNE,5.8,-,N/A,,Mostly Cloudy,20,2013-05-03 06:16:00
10:36 PM,44.6,42.8,93,30.51,10.0,Calm,Calm,-,N/A,,Mostly Cloudy,0,2013-05-03 06:36:00
10:56 PM,44.6,42.8,93,30.51,10.0,Calm,Calm,-,N/A,,Overcast,0,2013-05-03 06:56:00
11:16 PM,44.6,41.0,87,30.51,10.0,Calm,Calm,-,N/A,,Mostly Cloudy,0,2013-05-03 07:16:00
11:36 PM,44.6,41.0,87,30.51,10.0,Calm,Calm,-,N/A,,Overcast,0,2013-05-03 07:36:00